QPF
0.14 0.13 0.11 0.11 0.10 0.12 0.09 0.08 0.08 0.07 0.07 0.06 0.05 0.05 0.06 0.06 0.05 0.04 0.04 0.03 0.04 0.05 0.05 0.05 0.05 0.06 0.07 0.06 0.06 0.06 0.05 0.03 0.02 0.03 0.03 0.03 0.03 0.03 0.04 0.04 0.06 0.04 0.04
0.17 0.16 0.12 0.12 0.10 0.09 0.07 0.07 0.07 0.08 0.07 0.05 0.06 0.06 0.07 0.07 0.06 0.07 0.06 0.04 0.04 0.05 0.05 0.05 0.05 0.05 0.05 0.06 0.07 0.07 0.06 0.04 0.03 0.03 0.03 0.04 0.03 0.04 0.04 0.05 0.08 0.05 0.03
0.17 0.17 0.12 0.10 0.08 0.07 0.07 0.07 0.07 0.09 0.08 0.06 0.08 0.08 0.08 0.06 0.06 0.09 0.09 0.06 0.05 0.06 0.05 0.06 0.06 0.05 0.04 0.04 0.04 0.06 0.05 0.04 0.03 0.03 0.05 0.05 0.03 0.03 0.03 0.04 0.06 0.06 0.04
0.10 0.09 0.06 0.05 0.04 0.05 0.05 0.06 0.08 0.08 0.07 0.08 0.08 0.09 0.08 0.07 0.08 0.10 0.10 0.07 0.05 0.07 0.08 0.07 0.06 0.05 0.05 0.04 0.04 0.05 0.06 0.05 0.04 0.04 0.08 0.08 0.05 0.04 0.03 0.02 0.04 0.05 0.05
0.08 0.07 0.06 0.05 0.04 0.04 0.04 0.06 0.08 0.09 0.09 0.10 0.08 0.09 0.08 0.08 0.08 0.09 0.09 0.08 0.08 0.12 0.11 0.08 0.06 0.05 0.05 0.04 0.04 0.05 0.06 0.05 0.05 0.04 0.06 0.09 0.10 0.06 0.03 0.03 0.04 0.04 0.04
0.09 0.07 0.07 0.07 0.05 0.05 0.06 0.07 0.08 0.09 0.09 0.08 0.08 0.09 0.07 0.07 0.07 0.10 0.12 0.12 0.10 0.10 0.12 0.11 0.06 0.04 0.04 0.05 0.05 0.04 0.04 0.05 0.04 0.03 0.06 0.10 0.11 0.06 0.04 0.04 0.04 0.04 0.05
0.12 0.10 0.07 0.05 0.05 0.07 0.06 0.06 0.08 0.09 0.07 0.07 0.08 0.06 0.06 0.08 0.09 0.11 0.11 0.09 0.07 0.08 0.11 0.13 0.09 0.06 0.05 0.05 0.04 0.04 0.04 0.04 0.04 0.04 0.04 0.06 0.08 0.04 0.03 0.03 0.03 0.03 0.04
0.08 0.11 0.08 0.05 0.05 0.06 0.07 0.08 0.07 0.08 0.07 0.07 0.07 0.04 0.03 0.04 0.05 0.06 0.08 0.07 0.06 0.07 0.09 0.13 0.14 0.11 0.06 0.04 0.03 0.03 0.04 0.04 0.04 0.04 0.03 0.05 0.04 0.02 0.02 0.03 0.03 0.03 0.04
0.06 0.20 0.21 0.08 0.05 0.07 0.07 0.07 0.07 0.07 0.06 0.07 0.07 0.06 0.06 0.04 0.04 0.05 0.06 0.07 0.07 0.07 0.08 0.10 0.14 0.13 0.08 0.05 0.04 0.03 0.04 0.04 0.07 0.07 0.05 0.08 0.03 0.02 0.03 0.03 0.05 0.05 0.06
0.08 0.19 0.18 0.08 0.07 0.07 0.07 0.06 0.06 0.06 0.05 0.06 0.08 0.07 0.07 0.06 0.06 0.06 0.06 0.07 0.07 0.07 0.08 0.08 0.12 0.16 0.13 0.08 0.05 0.05 0.04 0.04 0.06 0.08 0.08 0.08 0.04 0.03 0.05 0.07 0.09 0.09 0.10
0.07 0.12 0.13 0.10 0.10 0.12 0.11 0.07 0.07 0.06 0.05 0.06 0.07 0.07 0.08 0.08 0.10 0.09 0.07 0.08 0.08 0.09 0.10 0.08 0.10 0.15 0.16 0.11 0.08 0.07 0.06 0.05 0.06 0.08 0.10 0.09 0.05 0.04 0.04 0.08 0.13 0.15 0.14
0.08 0.09 0.12 0.12 0.13 0.13 0.11 0.08 0.08 0.06 0.08 0.08 0.09 0.11 0.11 0.12 0.14 0.13 0.11 0.10 0.08 0.09 0.10 0.08 0.09 0.13 0.15 0.13 0.09 0.08 0.06 0.05 0.05 0.07 0.09 0.07 0.05 0.03 0.03 0.05 0.07 0.11 0.13
0.09 0.11 0.12 0.13 0.11 0.09 0.08 0.07 0.07 0.08 0.10 0.09 0.10 0.11 0.12 0.14 0.15 0.16 0.13 0.14 0.14 0.13 0.14 0.12 0.13 0.16 0.13 0.11 0.07 0.07 0.07 0.07 0.06 0.08 0.11 0.08 0.05 0.03 0.03 0.05 0.05 0.07 0.10
0.07 0.09 0.12 0.12 0.09 0.07 0.07 0.08 0.07 0.08 0.10 0.10 0.10 0.11 0.14 0.16 0.16 0.15 0.14 0.14 0.15 0.17 0.16 0.13 0.12 0.15 0.10 0.08 0.08 0.07 0.09 0.12 0.09 0.12 0.13 0.08 0.06 0.04 0.04 0.06 0.06 0.06 0.07
0.03 0.04 0.06 0.07 0.06 0.06 0.08 0.10 0.10 0.10 0.10 0.09 0.10 0.12 0.14 0.15 0.16 0.15 0.13 0.12 0.12 0.14 0.15 0.13 0.15 0.14 0.13 0.12 0.09 0.07 0.08 0.11 0.09 0.09 0.09 0.06 0.05 0.05 0.05 0.06 0.07 0.08 0.08
0.01 0.02 0.03 0.05 0.05 0.06 0.08 0.13 0.17 0.16 0.16 0.11 0.08 0.08 0.09 0.12 0.13 0.12 0.10 0.10 0.11 0.10 0.11 0.13 0.17 0.17 0.16 0.17 0.11 0.08 0.08 0.08 0.07 0.08 0.08 0.10 0.07 0.05 0.05 0.06 0.08 0.09 0.09
0.01 0.01 0.01 0.02 0.03 0.05 0.08 0.10 0.12 0.15 0.20 0.15 0.09 0.07 0.08 0.08 0.09 0.09 0.10 0.09 0.09 0.09 0.09 0.13 0.15 0.14 0.18 0.20 0.14 0.08 0.07 0.07 0.09 0.10 0.10 0.11 0.11 0.08 0.06 0.05 0.06 0.06 0.06
0.02 0.01 0.01 0.01 0.01 0.03 0.06 0.08 0.08 0.10 0.17 0.19 0.12 0.10 0.07 0.07 0.07 0.09 0.10 0.07 0.07 0.07 0.09 0.13 0.13 0.12 0.16 0.20 0.17 0.12 0.10 0.10 0.13 0.12 0.10 0.10 0.10 0.08 0.07 0.06 0.04 0.04 0.05
0.01 0.01 0.01 0.01 0.01 0.02 0.06 0.09 0.08 0.09 0.12 0.16 0.16 0.13 0.08 0.07 0.07 0.09 0.10 0.10 0.09 0.09 0.09 0.09 0.10 0.11 0.14 0.19 0.18 0.15 0.12 0.12 0.14 0.11 0.09 0.08 0.07 0.07 0.06 0.05 0.04 0.04 0.06
0.01 0.01 0.01 0.01 0.01 0.01 0.03 0.07 0.10 0.13 0.13 0.13 0.14 0.14 0.09 0.09 0.09 0.10 0.11 0.09 0.08 0.09 0.10 0.10 0.10 0.11 0.14 0.14 0.13 0.12 0.11 0.10 0.10 0.09 0.08 0.08 0.08 0.08 0.07 0.07 0.08 0.07 0.07
0.01 0.01 0.02 0.02 0.02 0.03 0.04 0.06 0.08 0.13 0.14 0.13 0.12 0.12 0.07 0.07 0.08 0.11 0.12 0.11 0.10 0.09 0.08 0.08 0.11 0.11 0.10 0.08 0.09 0.09 0.08 0.07 0.07 0.06 0.05 0.06 0.07 0.07 0.06 0.07 0.10 0.14 0.14
0.01 0.01 0.02 0.03 0.03 0.02 0.04 0.05 0.06 0.08 0.08 0.09 0.11 0.11 0.08 0.07 0.07 0.08 0.10 0.10 0.10 0.10 0.10 0.10 0.11 0.10 0.09 0.09 0.09 0.09 0.08 0.08 0.08 0.06 0.05 0.06 0.07 0.08 0.08 0.08 0.10 0.12 0.09
0.01 0.02 0.04 0.04 0.03 0.04 0.04 0.03 0.03 0.05 0.06 0.06 0.09 0.10 0.08 0.06 0.05 0.05 0.06 0.07 0.09 0.09 0.10 0.09 0.09 0.09 0.10 0.09 0.08 0.09 0.10 0.11 0.11 0.08 0.08 0.07 0.08 0.10 0.11 0.10 0.08 0.07 0.07
0.01 0.02 0.03 0.04 0.04 0.04 0.04 0.04 0.04 0.04 0.06 0.07 0.08 0.07 0.06 0.06 0.04 0.03 0.03 0.04 0.06 0.07 0.08 0.06 0.06 0.06 0.08 0.09 0.09 0.08 0.11 0.12 0.11 0.08 0.09 0.08 0.09 0.12 0.13 0.12 0.08 0.06 0.06
0.01 0.01 0.02 0.03 0.04 0.04 0.04 0.05 0.05 0.07 0.07 0.07 0.08 0.08 0.07 0.06 0.05 0.03 0.03 0.04 0.04 0.06 0.06 0.05 0.06 0.06 0.06 0.07 0.09 0.11 0.12 0.12 0.11 0.11 0.11 0.10 0.10 0.09 0.10 0.11 0.08 0.05 0.06
0.01 0.00 0.01 0.02 0.03 0.03 0.04 0.04 0.05 0.07 0.07 0.07 0.08 0.07 0.06 0.06 0.05 0.03 0.03 0.03 0.04 0.05 0.05 0.04 0.05 0.05 0.06 0.07 0.07 0.08 0.10 0.12 0.13 0.13 0.14 0.13 0.11 0.11 0.13 0.11 0.06 0.04 0.04
MSLP
1011.38 1011.12 1010.88 1010.74 1010.73 1010.88 1011.13 1011.44 1011.75 1012.01 1012.21 1012.37 1012.50 1012.67 1012.88 1013.15 1013.48 1013.82 1014.15 1014.44 1014.67 1014.85 1014.99 1015.12 1015.26 1015.42 1015.60 1015.78 1015.94 1016.08 1016.17 1016.22 1016.26 1016.31 1016.37 1016.46 1016.59 1016.73 1016.87 1017.00 1017.11 1017.21 1017.30
1011.42 1011.26 1011.12 1011.07 1011.14 1011.32 1011.56 1011.83 1012.07 1012.28 1012.45 1012.60 1012.77 1012.98 1013.25 1013.58 1013.93 1014.27 1014.58 1014.82 1015.00 1015.13 1015.23 1015.35 1015.48 1015.65 1015.83 1016.02 1016.18 1016.30 1016.37 1016.41 1016.44 1016.47 1016.54 1016.65 1016.78 1016.94 1017.10 1017.24 1017.36 1017.46 1017.55
1011.35 1011.30 1011.29 1011.36 1011.53 1011.76 1012.01 1012.25 1012.45 1012.61 1012.74 1012.88 1013.06 1013.31 1013.62 1013.96 1014.32 1014.64 1014.90 1015.09 1015.21 1015.29 1015.37 1015.48 1015.62 1015.81 1016.01 1016.20 1016.36 1016.47 1016.52 1016.54 1016.55 1016.59 1016.66 1016.77 1016.93 1017.10 1017.28 1017.44 1017.57 1017.68 1017.79
1011.17 1011.23 1011.37 1011.59 1011.88 1012.19 1012.48 1012.71 1012.88 1013.00 1013.10 1013.22 1013.40 1013.65 1013.96 1014.30 1014.63 1014.91 1015.12 1015.25 1015.33 1015.38 1015.45 1015.56 1015.73 1015.94 1016.16 1016.35 1016.51 1016.59 1016.63 1016.62 1016.62 1016.64 1016.71 1016.84 1017.01 1017.20 1017.40 1017.58 1017.74 1017.87 1018.00
1010.89 1011.07 1011.37 1011.75 1012.17 1012.59 1012.93 1013.19 1013.35 1013.44 1013.50 1013.60 1013.76 1013.99 1014.28 1014.59 1014.88 1015.11 1015.27 1015.36 1015.40 1015.45 1015.52 1015.66 1015.85 1016.08 1016.31 1016.50 1016.63 1016.69 1016.69 1016.65 1016.62 1016.63 1016.70 1016.84 1017.03 1017.25 1017.47 1017.67 1017.85 1018.01 1018.17
1010.54 1010.85 1011.29 1011.83 1012.40 1012.91 1013.33 1013.61 1013.77 1013.85 1013.90 1013.97 1014.10 1014.31 1014.56 1014.83 1015.08 1015.27 1015.38 1015.44 1015.48 1015.53 1015.63 1015.79 1016.01 1016.25 1016.49 1016.66 1016.76 1016.77 1016.72 1016.64 1016.57 1016.57 1016.64 1016.79 1017.00 1017.24 1017.49 1017.72 1017.92 1018.10 1018.28
1010.19 1010.60 1011.17 1011.84 1012.52 1013.13 1013.61 1013.93 1014.10 1014.17 1014.21 1014.27 1014.38 1014.56 1014.79 1015.03 1015.24 1015.39 1015.49 1015.53 1015.58 1015.65 1015.78 1015.97 1016.21 1016.47 1016.68 1016.82 1016.86 1016.82 1016.71 1016.58 1016.48 1016.46 1016.54 1016.70 1016.93 1017.20 1017.48 1017.73 1017.95 1018.14 1018.33
1009.89 1010.37 1011.02 1011.78 1012.54 1013.20 1013.72 1014.07 1014.25 1014.34 1014.38 1014.44 1014.55 1014.73 1014.94 1015.16 1015.35 1015.49 1015.58 1015.63 1015.70 1015.80 1015.96 1016.18 1016.43 1016.68 1016.86 1016.95 1016.93 1016.82 1016.65 1016.47 1016.34 1016.31 1016.40 1016.58 1016.84 1017.14 1017.43 1017.70 1017.93 1018.13 1018.31
1009.69 1010.20 1010.89 1011.67 1012.44 1013.13 1013.65 1014.00 1014.20 1014.30 1014.37 1014.45 1014.59 1014.78 1015.00 1015.23 1015.41 1015.55 1015.65 1015.72 1015.80 1015.93 1016.11 1016.35 1016.60 1016.82 1016.97 1017.00 1016.93 1016.75 1016.53 1016.31 1016.17 1016.14 1016.23 1016.44 1016.72 1017.04 1017.36 1017.64 1017.87 1018.06 1018.23
1009.62 1010.12 1010.79 1011.54 1012.27 1012.92 1013.41 1013.75 1013.96 1014.08 1014.18 1014.31 1014.49 1014.71 1014.96 1015.20 1015.40 1015.55 1015.65 1015.74 1015.84 1015.98 1016.17 1016.41 1016.65 1016.84 1016.95 1016.94 1016.81 1016.59 1016.34 1016.10 1015.95 1015.93 1016.04 1016.27 1016.58 1016.92 1017.25 1017.53 1017.76 1017.94 1018.09
1009.67 1010.12 1010.73 1011.40 1012.05 1012.62 1013.05 1013.36 1013.56 1013.70 1013.85 1014.02 1014.25 1014.53 1014.81 1015.08 1015.30 1015.46 1015.57 1015.66 1015.76 1015.91 1016.09 1016.31 1016.53 1016.70 1016.77 1016.73 1016.58 1016.34 1016.08 1015.84 1015.70 1015.69 1015.82 1016.07 1016.39 1016.75 1017.08 1017.37 1017.59 1017.76 1017.90
1009.78 1010.19 1010.70 1011.27 1011.81 1012.27 1012.63 1012.89 1013.08 1013.24 1013.42 1013.65 1013.93 1014.25 1014.57 1014.87 1015.10 1015.27 1015.38 1015.47 1015.56 1015.69 1015.86 1016.05 1016.24 1016.39 1016.44 1016.39 1016.24 1016.01 1015.75 1015.54 1015.41 1015.41 1015.55 1015.80 1016.13 1016.49 1016.83 1017.11 1017.34 1017.50 1017.63
1009.91 1010.26 1010.69 1011.14 1011.57 1011.94 1012.22 1012.42 1012.60 1012.77 1012.97 1013.24 1013.56 1013.91 1014.26 1014.57 1014.81 1014.98 1015.08 1015.16 1015.24 1015.34 1015.48 1015.65 1015.82 1015.94 1015.99 1015.95 1015.81 1015.61 1015.39 1015.20 1015.09 1015.10 1015.23 1015.47 1015.78 1016.13 1016.46 1016.74 1016.97 1017.14 1017.28
1009.97 1010.29 1010.65 1011.01 1011.35 1011.63 1011.84 1012.01 1012.17 1012.34 1012.56 1012.85 1013.18 1013.54 1013.90 1014.20 1014.45 1014.61 1014.71 1014.78 1014.84 1014.92 1015.04 1015.18 1015.32 1015.44 1015.50 1015.47 1015.37 1015.21 1015.02 1014.85 1014.74 1014.74 1014.84 1015.04 1015.32 1015.63 1015.95 1016.24 1016.48 1016.68 1016.84
1009.91 1010.21 1010.53 1010.85 1011.13 1011.36 1011.54 1011.69 1011.83 1012.00 1012.22 1012.50 1012.82 1013.17 1013.50 1013.80 1014.03 1014.20 1014.30 1014.37 1014.42 1014.49 1014.59 1014.71 1014.85 1014.96 1015.03 1015.03 1014.96 1014.83 1014.67 1014.52 1014.40 1014.36 1014.40 1014.54 1014.75 1015.01 1015.30 1015.58 1015.85 1016.09 1016.30
1009.66 1009.99 1010.31 1010.62 1010.90 1011.12 1011.30 1011.45 1011.60 1011.76 1011.96 1012.20 1012.49 1012.79 1013.10 1013.37 1013.60 1013.77 1013.89 1013.97 1014.04 1014.12 1014.22 1014.34 1014.46 1014.58 1014.66 1014.68 1014.64 1014.54 1014.39 1014.23 1014.08 1013.97 1013.94 1013.98 1014.10 1014.30 1014.54 1014.82 1015.10 1015.39 1015.66
1009.25 1009.61 1009.97 1010.32 1010.62 1010.88 1011.10 1011.28 1011.44 1011.59 1011.76 1011.96 1012.18 1012.43 1012.68 1012.93 1013.15 1013.34 1013.50 1013.63 1013.74 1013.84 1013.96 1014.08 1014.21 1014.33 1014.42 1014.46 1014.43 1014.35 1014.20 1014.01 1013.81 1013.62 1013.48 1013.42 1013.43 1013.54 1013.72 1013.98 1014.28 1014.61 1014.95
1008.69 1009.11 1009.52 1009.92 1010.29 1010.62 1010.90 1011.13 1011.32 1011.47 1011.60 1011.73 1011.89 1012.06 1012.26 1012.48 1012.70 1012.93 1013.13 1013.32 1013.50 1013.65 1013.80 1013.95 1014.08 1014.20 1014.30 1014.34 1014.33 1014.25 1014.09 1013.88 1013.61 1013.34 1013.10 1012.91 1012.80 1012.81 1012.92 1013.14 1013.45 1013.81 1014.20
1008.04 1008.50 1008.97 1009.44 1009.90 1010.31 1010.68 1010.97 1011.19 1011.34 1011.43 1011.51 1011.58 1011.68 1011.82 1012.01 1012.24 1012.50 1012.77 1013.04 1013.28 1013.50 1013.70 1013.87 1014.02 1014.14 1014.24 1014.30 1014.29 1014.21 1014.05 1013.81 1013.50 1013.15 1012.80 1012.50 1012.28 1012.18 1012.21 1012.37 1012.66 1013.03 1013.45
1007.34 1007.84 1008.36 1008.90 1009.44 1009.94 1010.40 1010.76 1011.02 1011.18 1011.25 1011.26 1011.26 1011.28 1011.37 1011.52 1011.75 1012.05 1012.37 1012.71 1013.03 1013.31 1013.56 1013.76 1013.93 1014.07 1014.17 1014.24 1014.25 1014.19 1014.04 1013.79 1013.45 1013.05 1012.62 1012.22 1011.90 1011.69 1011.63 1011.72 1011.96 1012.31 1012.74
1006.64 1007.16 1007.72 1008.31 1008.92 1009.51 1010.05 1010.48 1010.79 1010.96 1011.01 1010.98 1010.91 1010.86 1010.88 1011.00 1011.22 1011.53 1011.90 1012.30 1012.67 1013.01 1013.30 1013.53 1013.72 1013.87 1014.00 1014.09 1014.13 1014.10 1013.99 1013.76 1013.43 1013.01 1012.54 1012.07 1011.66 1011.35 1011.20 1011.21 1011.38 1011.69 1012.09
1005.95 1006.48 1007.06 1007.70 1008.36 1009.02 1009.63 1010.13 1010.49 1010.68 1010.72 1010.65 1010.53 1010.42 1010.38 1010.45 1010.64 1010.95 1011.33 1011.75 1012.16 1012.53 1012.84 1013.10 1013.31 1013.48 1013.63 1013.76 1013.85 1013.88 1013.82 1013.65 1013.37 1012.97 1012.49 1011.99 1011.52 1011.15 1010.91 1010.83 1010.93 1011.17 1011.51
1005.28 1005.81 1006.40 1007.06 1007.76 1008.48 1009.15 1009.71 1010.11 1010.33 1010.38 1010.29 1010.13 1009.96 1009.86 1009.87 1010.01 1010.28 1010.64 1011.05 1011.45 1011.83 1012.15 1012.42 1012.64 1012.84 1013.03 1013.21 1013.36 1013.46 1013.49 1013.40 1013.19 1012.85 1012.41 1011.91 1011.42 1011.00 1010.70 1010.54 1010.55 1010.72 1011.00
1004.60 1005.14 1005.73 1006.41 1007.14 1007.89 1008.60 1009.21 1009.66 1009.92 1009.98 1009.89 1009.71 1009.50 1009.34 1009.28 1009.36 1009.56 1009.86 1010.22 1010.59 1010.93 1011.24 1011.50 1011.73 1011.95 1012.17 1012.40 1012.63 1012.82 1012.94 1012.95 1012.83 1012.57 1012.20 1011.75 1011.28 1010.84 1010.50 1010.28 1010.22 1010.31 1010.53
1003.91 1004.46 1005.07 1005.75 1006.49 1007.26 1008.00 1008.65 1009.14 1009.44 1009.54 1009.47 1009.27 1009.04 1008.83 1008.71 1008.70 1008.81 1009.03 1009.31 1009.61 1009.91 1010.17 1010.41 1010.64 1010.87 1011.12 1011.40 1011.68 1011.95 1012.16 1012.27 1012.26 1012.10 1011.82 1011.44 1011.01 1010.60 1010.25 1010.00 1009.90 1009.93 1010.10
1003.24 1003.81 1004.42 1005.10 1005.84 1006.62 1007.38 1008.05 1008.58 1008.92 1009.06 1009.01 1008.84 1008.59 1008.35 1008.17 1008.09 1008.11 1008.23 1008.41 1008.62 1008.84 1009.05 1009.25 1009.45 1009.68 1009.95 1010.25 1010.57 1010.90 1011.18 1011.38 1011.46 1011.41 1011.23 1010.94 1010.59 1010.23 1009.91 1009.67 1009.55 1009.56 1009.69
Thickness
5812 5812 5808 5806 5805 5804 5802 5800 5798 5796 5795 5794 5792 5791 5790 5789 5788 5787 5786 5786 5785 5784 5782 5781 5780 5779 5779 5778 5778 5777 5776 5775 5774 5773 5772 5771 5771 5770 5769 5768 5767 5766 5765
5816 5812 5808 5806 5804 5803 5801 5799 5797 5796 5794 5793 5792 5790 5789 5788 5787 5786 5785 5784 5783 5783 5782 5780 5779 5778 5778 5777 5777 5776 5775 5774 5773 5772 5771 5770 5770 5769 5768 5767 5766 5765 5764
5817 5812 5808 5805 5803 5802 5800 5798 5796 5795 5793 5792 5790 5789 5788 5787 5786 5785 5784 5783 5782 5781 5781 5780 5778 5777 5777 5776 5775 5774 5774 5773 5773 5772 5771 5771 5770 5768 5767 5766 5765 5763 5762
5818 5813 5808 5804 5803 5801 5799 5797 5796 5794 5793 5791 5790 5789 5787 5787 5785 5784 5783 5782 5781 5780 5779 5778 5777 5776 5775 5775 5774 5773 5773 5773 5772 5772 5771 5772 5771 5769 5767 5766 5764 5762 5761
5819 5813 5807 5804 5802 5801 5799 5797 5795 5793 5792 5791 5789 5788 5787 5786 5785 5784 5782 5781 5780 5779 5779 5778 5776 5776 5775 5774 5773 5773 5772 5772 5772 5772 5772 5772 5771 5769 5767 5765 5763 5762 5760
5819 5814 5807 5805 5802 5800 5798 5796 5794 5793 5792 5790 5789 5788 5787 5786 5785 5783 5781 5780 5779 5779 5778 5776 5775 5774 5774 5773 5772 5772 5772 5772 5772 5773 5773 5772 5770 5769 5767 5765 5763 5761 5759
5818 5814 5808 5805 5803 5800 5798 5796 5794 5793 5792 5790 5789 5788 5787 5786 5785 5782 5781 5780 5779 5778 5777 5775 5774 5773 5772 5772 5772 5772 5771 5772 5772 5774 5774 5773 5771 5769 5766 5764 5762 5760 5758
5819 5814 5809 5805 5803 5801 5798 5796 5795 5793 5791 5790 5789 5788 5787 5786 5784 5782 5781 5779 5778 5777 5776 5775 5773 5772 5772 5772 5772 5771 5771 5772 5773 5774 5774 5773 5771 5768 5766 5764 5762 5760 5758
5819 5814 5810 5807 5803 5800 5798 5796 5795 5793 5792 5790 5789 5788 5787 5786 5784 5782 5781 5779 5778 5776 5775 5774 5773 5772 5771 5771 5771 5771 5772 5771 5772 5773 5774 5772 5770 5768 5766 5763 5762 5759 5758
5817 5814 5810 5808 5805 5802 5799 5796 5795 5793 5792 5791 5790 5789 5788 5786 5784 5782 5781 5779 5777 5776 5774 5773 5772 5771 5771 5771 5771 5771 5771 5772 5772 5773 5773 5771 5770 5768 5766 5763 5761 5759 5757
5814 5813 5811 5809 5806 5804 5802 5799 5796 5794 5793 5792 5791 5790 5788 5787 5786 5783 5781 5780 5778 5776 5775 5774 5773 5772 5771 5771 5771 5771 5771 5772 5773 5773 5772 5771 5769 5767 5765 5763 5761 5759 5757
5810 5811 5811 5809 5807 5805 5803 5800 5798 5797 5795 5793 5793 5791 5789 5788 5787 5785 5782 5780 5778 5777 5775 5774 5773 5772 5772 5771 5772 5771 5772 5773 5773 5773 5772 5771 5769 5767 5765 5763 5761 5759 5757
5812 5811 5811 5809 5806 5804 5803 5801 5800 5799 5797 5795 5794 5793 5791 5789 5787 5786 5783 5781 5779 5777 5776 5775 5774 5774 5774 5774 5774 5774 5774 5774 5775 5774 5772 5770 5768 5766 5764 5762 5760 5758 5756
5812 5810 5811 5809 5806 5804 5803 5802 5801 5800 5798 5797 5795 5793 5792 5790 5788 5787 5785 5783 5781 5779 5778 5776 5775 5776 5776 5776 5776 5775 5775 5775 5774 5773 5771 5769 5766 5765 5763 5761 5759 5757 5755
5812 5810 5811 5810 5806 5804 5802 5801 5801 5800 5799 5798 5796 5794 5793 5791 5788 5787 5786 5784 5782 5781 5779 5777 5776 5776 5776 5777 5776 5776 5775 5774 5773 5772 5770 5768 5765 5764 5762 5760 5758 5756 5754
5813 5811 5811 5810 5807 5804 5801 5800 5800 5800 5800 5799 5796 5794 5792 5791 5789 5787 5785 5784 5782 5781 5779 5778 5777 5776 5776 5776 5776 5775 5774 5773 5771 5771 5769 5767 5764 5763 5761 5759 5757 5755 5753
5816 5814 5812 5810 5807 5804 5802 5801 5801 5801 5801 5799 5797 5795 5792 5791 5789 5787 5785 5783 5783 5782 5780 5779 5777 5776 5775 5775 5774 5774 5773 5773 5772 5771 5770 5767 5764 5762 5760 5758 5756 5754 5752
5818 5815 5813 5812 5808 5804 5802 5801 5801 5801 5800 5799 5797 5795 5793 5791 5789 5787 5785 5783 5783 5782 5780 5778 5776 5774 5773 5772 5771 5771 5771 5771 5771 5770 5769 5767 5764 5762 5759 5757 5755 5753 5751
5820 5816 5812 5810 5807 5804 5802 5801 5801 5800 5799 5798 5797 5794 5793 5791 5790 5787 5785 5784 5783 5782 5780 5779 5776 5774 5771 5770 5769 5769 5770 5770 5769 5768 5767 5765 5764 5762 5759 5756 5754 5752 5750
5822 5817 5813 5810 5807 5805 5802 5800 5799 5798 5797 5797 5796 5794 5793 5791 5789 5788 5785 5784 5782 5780 5778 5777 5774 5773 5772 5770 5770 5769 5769 5769 5768 5767 5766 5765 5763 5762 5759 5756 5753 5750 5748
5820 5816 5812 5809 5807 5804 5800 5797 5794 5793 5794 5795 5795 5794 5792 5790 5789 5787 5785 5783 5782 5779 5777 5776 5774 5771 5770 5770 5766 5763 5765 5767 5767 5766 5765 5763 5762 5761 5759 5756 5753 5750 5747
5819 5815 5811 5808 5806 5804 5801 5798 5796 5795 5794 5794 5793 5792 5791 5789 5788 5787 5784 5782 5781 5778 5776 5775 5773 5769 5769 5770 5763 5757 5754 5756 5761 5764 5763 5762 5761 5759 5756 5755 5753 5750 5747
5818 5814 5812 5808 5806 5803 5802 5799 5797 5794 5792 5790 5789 5789 5789 5789 5787 5785 5783 5781 5780 5778 5775 5774 5772 5769 5765 5767 5767 5759 5751 5746 5751 5757 5760 5759 5758 5757 5755 5752 5750 5749 5746
5820 5818 5813 5809 5805 5803 5801 5797 5793 5789 5786 5787 5788 5788 5788 5788 5786 5785 5783 5781 5778 5777 5774 5773 5772 5770 5767 5763 5764 5764 5760 5756 5748 5745 5751 5754 5755 5753 5751 5751 5748 5746 5744
5823 5819 5814 5809 5805 5802 5800 5797 5793 5790 5789 5789 5788 5786 5785 5785 5784 5783 5781 5780 5777 5775 5773 5772 5770 5768 5766 5763 5760 5759 5757 5756 5753 5745 5740 5744 5747 5749 5749 5748 5747 5745 5744
5824 5820 5815 5808 5803 5802 5799 5796 5793 5789 5787 5785 5784 5783 5783 5783 5782 5781 5780 5777 5775 5773 5772 5770 5768 5766 5764 5762 5760 5758 5755 5752 5749 5746 5741 5740 5740 5744 5747 5747 5746 5744 5743